sat.trackr.live / text

‹ back to catalog

STARLINK-34313

NORAD 64166 · 2025-112W

PAYLOAD ACTIVE UNKNOWN

§ Identity

Operator
Country
US
Launch date
2025-05-27
Launch site
AFWTR
Launch vehicle
Mass (kg)
RCS (m²)

Purposes: comms

External: N2YO · Heavens-Above · Gunter

§ Orbital elements

Epoch: 2026-05-25T03:26:01.768992Z

Period
95.64 min
Inclination
97.4449°
Eccentricity
0.0001992
Mean motion
15.05671105 rev/d
Perigee alt
548.1 km
Apogee alt
550.8 km
Semi-major
6,927.6 km
B*
4.1754e-4
RAAN
196.5389°
Arg perigee
134.4604°
Mean anomaly
225.6786°
Rev number
5,481

§ Raw data

STARLINK-343131 64166U 25112W   26145.14307603  .00005974  00000+0  41754-3 0  99942 64166  97.4449 196.5389 0001992 134.4604 225.6786 15.05671105 54811

JSON: /api/v1/satellites/64166 · /tle

For live sub-satellite position, see the globe view (requires WebGL).

§ Visibility from observer

Set your observer location to see the next 7 days of passes ≥ 10°. The values pass through the URL so the page stays shareable.

No JS? Fill the form by hand. The geolocation button needs JavaScript.